User: anonymous   Login
Location: Unspecified
(0.0000°N, 0.0000°E)
Time: 11:35:15
(UTC+00:00)
Language:

Safir 2 - Orbit

View from above orbital plane
View from above orbital plane
View from above satellite
View from above satellite

Ground track
Ground track

The orbit data is extracted from the following two-line orbital elements,

1 25399U 98043F   17264.88746993 -.00000005  00000-0  16355-4 0  9996
2 25399  98.5827 206.7514 0002160  29.8067 330.3235 14.24591465998034
Epoch (UTC): 21 September 2017 21:17:57
Eccentricity: 0.0002160
inclination: 98.5827°
perigee height: 808 km
apogee height: 811 km
right ascension of ascending node: 206.7514°
argument of perigee: 29.8067°
revolutions per day: 14.24591465
mean anomaly at epoch: 330.3235°
orbit number at epoch: 99803

The dashed part of the orbit path shows where the satellite is in the earth's shadow,  

DLR